When you browse on this site, cookies collect data to enhance your experience and personalize the content and advertising you see.
Visit our Privacy Policy to learn more. By continuing to use the site, you agree to this use of cookies and data.
  • In Lithuania
  • List of Countries
  • For 7 days
  • Water Temperature
  • Weather Map
  • Weather Widgets
  • user-avatar
    Login

    Hourly Weather Klagenfurt

    Today, 19 September, Thursday

    Time Temperature Precipitation Wind Pressure Humidity
    00:00 +10°C° 0 mm 1 mps 693 mmHg 85%
    01:00 +10°C° 0 mm 1 mps 694 mmHg 82%
    02:00 +9°C° 0 mm 1 mps 693 mmHg 82%
    03:00 +9°C° 0 mm 1 mps 693 mmHg 82%
    04:00 +9°C° 0 mm 1 mps 693 mmHg 81%
    05:00 +9°C° 0 mm 1 mps 693 mmHg 79%
    06:00 +9°C° 0 mm 1 mps 693 mmHg 77%
    07:00 +9°C° 0 mm 1 mps 693 mmHg 74%
    08:00 +11°C° 0 mm 1 mps 694 mmHg 68%
    09:00 +12°C° 0 mm 2 mps 694 mmHg 61%
    10:00 +13°C° 0 mm 2 mps 695 mmHg 54%
    11:00 +14°C° 0 mm 2 mps 695 mmHg 53%
    12:00 +15°C° 0 mm 2 mps 695 mmHg 51%
    13:00 +15°C° 0 mm 2 mps 695 mmHg 50%
    14:00 +15°C° 0 mm 2 mps 694 mmHg 52%
    15:00 +15°C° 0 mm 2 mps 694 mmHg 53%
    16:00 +15°C° 0 mm 2 mps 694 mmHg 55%
    17:00 +13°C° 0 mm 2 mps 694 mmHg 65%
    18:00 +10°C° 0 mm 1 mps 694 mmHg 74%
    19:00 +8°C° 0 mm 1 mps 694 mmHg 84%
    20:00 +8°C° 0 mm 1 mps 695 mmHg 85%
    21:00 +8°C° 0 mm 1 mps 695 mmHg 85%
    22:00 +7°C° 0 mm 1 mps 696 mmHg 85%
    23:00 +7°C° 0 mm 1 mps 696 mmHg 87%

    Tomorrow, 20 September, Friday

    Time Temperature Precipitation Wind Pressure Humidity
    00:00 +6°C° 0 mm 1 mps 696 mmHg 88%
    01:00 +5°C° 0 mm 0 mps 696 mmHg 89%
    02:00 +4°C° 0 mm 0 mps 695 mmHg 89%
    03:00 +4°C° 0 mm 0 mps 695 mmHg 89%
    04:00 +3°C° 0 mm 0 mps 695 mmHg 89%
    05:00 +4°C° 0 mm 0 mps 695 mmHg 87%
    06:00 +5°C° 0 mm 0 mps 695 mmHg 85%
    07:00 +5°C° 0 mm 0 mps 695 mmHg 83%
    08:00 +8°C° 0 mm 1 mps 696 mmHg 74%
    09:00 +10°C° 0 mm 1 mps 696 mmHg 65%
    10:00 +13°C° 0 mm 1 mps 696 mmHg 56%
    11:00 +14°C° 0 mm 1 mps 696 mmHg 53%
    12:00 +15°C° 0 mm 2 mps 696 mmHg 50%
    13:00 +15°C° 0 mm 2 mps 696 mmHg 47%
    14:00 +15°C° 0 mm 2 mps 695 mmHg 49%
    15:00 +15°C° 0 mm 1 mps 695 mmHg 51%
    16:00 +14°C° 0 mm 1 mps 695 mmHg 53%
    17:00 +12°C° 0 mm 1 mps 695 mmHg 61%
    18:00 +10°C° 0 mm 1 mps 694 mmHg 70%
    19:00 +7°C° 0 mm 1 mps 694 mmHg 78%
    20:00 +7°C° 0 mm 1 mps 694 mmHg 78%
    21:00 +7°C° 0 mm 1 mps 694 mmHg 77%
    22:00 +6°C° 0 mm 1 mps 694 mmHg 77%
    23:00 +6°C° 0 mm 1 mps 694 mmHg 76%

    Day after tomorrow, 21 September, Saturday

    Time Temperature Precipitation Wind Pressure Humidity
    00:00 +6°C° 0 mm 1 mps 694 mmHg 76%
    01:00 +6°C° 0 mm 1 mps 694 mmHg 76%
    02:00 +4°C° 0 mm 0 mps 694 mmHg 75%
    03:00 +4°C° 0 mm 0 mps 693 mmHg 74%
    04:00 +4°C° 0 mm 0 mps 693 mmHg 73%
    05:00 +5°C° 0 mm 0 mps 693 mmHg 72%
    06:00 +5°C° 0 mm 0 mps 693 mmHg 70%
    07:00 +6°C° 0 mm 0 mps 693 mmHg 69%
    08:00 +8°C° 0 mm 0 mps 694 mmHg 62%
    09:00 +12°C° 0 mm 1 mps 694 mmHg 54%
    10:00 +14°C° 0 mm 1 mps 694 mmHg 47%
    11:00 +15°C° 0 mm 1 mps 694 mmHg 45%
    12:00 +16°C° 0 mm 1 mps 694 mmHg 44%
    13:00 +18°C° 0 mm 1 mps 694 mmHg 42%
    14:00 +18°C° 0 mm 1 mps 694 mmHg 45%
    15:00 +18°C° 0 mm 1 mps 693 mmHg 48%
    16:00 +16°C° 0 mm 1 mps 693 mmHg 50%
    17:00 +14°C° 0 mm 1 mps 692 mmHg 59%
    18:00 +11°C° 0 mm 1 mps 692 mmHg 68%
    19:00 +9°C° 0 mm 1 mps 692 mmHg 76%
    20:00 +9°C° 0 mm 1 mps 692 mmHg 76%
    21:00 +8°C° 0 mm 1 mps 691 mmHg 76%
    22:00 +8°C° 0 mm 1 mps 691 mmHg 77%
    23:00 +8°C° 0 mm 1 mps 691 mmHg 76%

    22 September, Sunday

    Time Temperature Precipitation Wind Pressure Humidity
    00:00 +8°C° 0 mm 1 mps 691 mmHg 75%
    01:00 +8°C° 0 mm 1 mps 690 mmHg 74%
    02:00 +8°C° 0 mm 1 mps 690 mmHg 76%
    03:00 +7°C° 0 mm 1 mps 690 mmHg 78%
    04:00 +7°C° 0 mm 1 mps 690 mmHg 80%
    05:00 +8°C° 0 mm 1 mps 690 mmHg 80%
    06:00 +9°C° 0 mm 1 mps 689 mmHg 80%
    07:00 +9°C° 0 mm 1 mps 689 mmHg 80%
    08:00 +11°C° 0 mm 1 mps 689 mmHg 77%
    09:00 +12°C° 0 mm 1 mps 690 mmHg 74%
    10:00 +14°C° 0 mm 1 mps 690 mmHg 71%
    11:00 +14°C° 0 mm 1 mps 689 mmHg 74%
    12:00 +14°C° 0 mm 1 mps 689 mmHg 77%
    13:00 +14°C° 0 mm 1 mps 689 mmHg 80%
    14:00 +14°C° 0.1 mm 1 mps 688 mmHg 83%
    15:00 +14°C° 0.1 mm 1 mps 688 mmHg 85%
    16:00 +14°C° 0.1 mm 1 mps 688 mmHg 88%
    17:00 +14°C° 0.1 mm 1 mps 687 mmHg 91%
    18:00 +13°C° 0.1 mm 1 mps 687 mmHg 94%
    19:00 +13°C° 0.1 mm 1 mps 687 mmHg 97%
    20:00 +13°C° 0.2 mm 1 mps 687 mmHg 97%
    21:00 +13°C° 0.2 mm 1 mps 687 mmHg 97%
    22:00 +13°C° 0.2 mm 1 mps 687 mmHg 97%
    23:00 +13°C° 0 mm 1 mps 687 mmHg 97%

    23 September, Monday

    Time Temperature Precipitation Wind Pressure Humidity
    00:00 +13°C° 0 mm 1 mps 687 mmHg 97%
    01:00 +13°C° 0 mm 1 mps 686 mmHg 97%
    02:00 +13°C° 0 mm 1 mps 686 mmHg 97%
    03:00 +13°C° 0 mm 1 mps 686 mmHg 98%
    04:00 +13°C° 0 mm 1 mps 686 mmHg 98%
    05:00 +13°C° 0 mm 1 mps 686 mmHg 97%
    06:00 +14°C° 0 mm 1 mps 686 mmHg 96%
    07:00 +13°C° 0 mm 0 mps 686 mmHg 96%
    08:00 +14°C° 0.2 mm 0 mps 687 mmHg 94%
    09:00 +15°C° 0.2 mm 0 mps 687 mmHg 92%
    10:00 +18°C° 0.2 mm 1 mps 688 mmHg 90%
    11:00 +16°C° 1.5 mm 1 mps 688 mmHg 90%
    12:00 +16°C° 1.5 mm 1 mps 688 mmHg 90%
    13:00 +15°C° 1.5 mm 2 mps 688 mmHg 90%
    14:00 +14°C° 0.8 mm 2 mps 687 mmHg 90%
    15:00 +14°C° 0.8 mm 2 mps 687 mmHg 89%
    16:00 +13°C° 0.8 mm 2 mps 687 mmHg 89%
    17:00 +12°C° 0 mm 1 mps 687 mmHg 89%
    18:00 +12°C° 0 mm 1 mps 688 mmHg 89%
    19:00 +11°C° 0 mm 1 mps 688 mmHg 89%
    20:00 +10°C° 0 mm 1 mps 688 mmHg 89%
    21:00 +10°C° 0 mm 1 mps 689 mmHg 90%
    22:00 +9°C° 0 mm 1 mps 689 mmHg 91%
    23:00 +9°C° 0 mm 1 mps 689 mmHg 91%

    24 September, Tuesday

    Time Temperature Precipitation Wind Pressure Humidity
    00:00 +9°C° 0 mm 1 mps 689 mmHg 90%
    01:00 +8°C° 0 mm 1 mps 689 mmHg 90%
    02:00 +8°C° 0 mm 1 mps 689 mmHg 90%
    03:00 +8°C° 0 mm 1 mps 688 mmHg 90%
    04:00 +7°C° 0 mm 0 mps 688 mmHg 89%
    05:00 +8°C° 0 mm 0 mps 688 mmHg 88%
    06:00 +8°C° 0 mm 0 mps 689 mmHg 87%
    07:00 +9°C° 0 mm 0 mps 689 mmHg 85%
    08:00 +11°C° 0 mm 0 mps 689 mmHg 77%
    09:00 +14°C° 0 mm 0 mps 690 mmHg 68%
    10:00 +16°C° 0 mm 0 mps 691 mmHg 59%
    11:00 +19°C° 0 mm 1 mps 691 mmHg 57%
    12:00 +20°C° 0 mm 1 mps 691 mmHg 55%
    13:00 +20°C° 0 mm 1 mps 691 mmHg 52%
    14:00 +20°C° 0 mm 1 mps 690 mmHg 56%
    15:00 +17°C° 0 mm 0 mps 690 mmHg 60%
    16:00 +17°C° 0 mm 0 mps 690 mmHg 64%
    17:00 +15°C° 0 mm 0 mps 689 mmHg 72%
    18:00 +13°C° 0 mm 0 mps 689 mmHg 79%
    19:00 +12°C° 0 mm 1 mps 689 mmHg 86%
    20:00 +11°C° 0 mm 0 mps 689 mmHg 84%
    21:00 +11°C° 0 mm 0 mps 689 mmHg 83%
    22:00 +12°C° 0 mm 0 mps 689 mmHg 81%
    23:00 +11°C° 0 mm 0 mps 689 mmHg 82%
    Show more